DW9699 Haslev DK current weather conditions

sailwx.info

Wind from 264 at 4 knots gusting 11

Air temperature 10.6° C
Dewpoint -19.8° C

Last reported at 2018-Sep-22 06:10 UTC.
Time now 2018-Sep-22 06:55 UTC

Location: N 55°22' E 011°58'.
View on Google Maps.

See reports from other nearby stations

  
Tides and Currents Weather Stations Pressure Air Temp Water Temp Dewpoint Dewpoint Depression Visibility Wind Speed Wind Dir Waves Ship Positions
date/time (UTC)wind fromknots sea level pressurealtimeterstation pressurevisibilityair tempwater tempwave heightnotes
2018-Sep-22 06:10 264 4 gusting 11 10.6
2018-Sep-22 06:05 263 3 gusting 9 10.6
2018-Sep-22 05:45 246 6 gusting 10 10.6
2018-Sep-22 05:40 244 3 gusting 10 10.6
2018-Sep-22 05:30 284 5 gusting 10 10.6
2018-Sep-22 05:20 256 3 gusting 10 10.6
2018-Sep-22 05:10 272 5 gusting 12 10.6
2018-Sep-22 05:00 286 3 gusting 9 10.6
2018-Sep-22 04:50 264 6 gusting 11 10.6
2018-Sep-22 04:45 270 5 gusting 9 10.6
2018-Sep-22 04:40 306 4 gusting 11 10.6
2018-Sep-22 04:35 307 6 gusting 11 10.6
2018-Sep-22 04:25 304 3 gusting 11 10.6
2018-Sep-22 04:15 325 5 gusting 13 10.6
2018-Sep-22 04:05 313 8 gusting 14 10.6
2018-Sep-22 04:00 299 8 gusting 14 10.6
2018-Sep-22 03:30 001 3 gusting 6 10.0
2018-Sep-22 03:25 355 3 gusting 6 10.0
2018-Sep-22 03:20 318 3 gusting 6 10.0
2018-Sep-22 03:10 314 3 gusting 6 10.0
2018-Sep-22 03:05 325 3 gusting 6 10.0
2018-Sep-22 03:00 350 3 gusting 8 10.0
2018-Sep-22 02:40 215 6 gusting 13 10.0
2018-Sep-22 02:35 207 5 gusting 12 10.0
2018-Sep-22 02:30 208 5 gusting 13 10.0
2018-Sep-22 02:25 203 4 gusting 13 10.0
2018-Sep-22 02:10 165 6 gusting 14 10.0
2018-Sep-22 02:05 150 4 gusting 13 10.0
2018-Sep-22 01:55 220 5 gusting 12 10.0
2018-Sep-22 01:50 200 4 gusting 12 10.0
2018-Sep-22 01:45 045 4 gusting 11 10.0
2018-Sep-22 01:35 331 6 gusting 10 10.0
2018-Sep-22 01:30 002 3 gusting 10 10.0
2018-Sep-22 01:25 344 4 gusting 10 10.0
2018-Sep-22 01:20 311 6 gusting 10 9.4
2018-Sep-22 01:15 314 3 gusting 12 9.4
2018-Sep-22 01:10 338 3 gusting 12 9.4
2018-Sep-22 01:05 001 5 gusting 18 10.6
2018-Sep-22 01:00 006 5 gusting 18 10.6
2018-Sep-22 00:40 149 9 gusting 18 11.7
2018-Sep-22 00:35 162 6 gusting 19 11.7
2018-Sep-22 00:30 156 9 gusting 19 11.7
2018-Sep-22 00:15 162 7 gusting 17 11.7
2018-Sep-22 00:10 169 7 gusting 17 11.7
2018-Sep-22 00:00 171 6 gusting 16 11.7
2018-Sep-21 23:50 187 8 gusting 16 11.7
2018-Sep-21 23:45 193 7 gusting 17 11.7
2018-Sep-21 23:40 183 9 gusting 17 11.7
2018-Sep-21 23:35 181 6 gusting 21 11.7
2018-Sep-21 23:30 190 8 gusting 21 11.7
2018-Sep-21 23:25 204 10 gusting 21 11.7
2018-Sep-21 23:15 198 7 gusting 18 11.7
2018-Sep-21 22:55 193 12 gusting 18 11.7
2018-Sep-21 22:50 189 8 gusting 19 11.7
2018-Sep-21 22:40 249 8 gusting 15 11.7
2018-Sep-21 22:35 265 9 gusting 15 11.7
2018-Sep-21 22:25 207 9 gusting 14 11.7
2018-Sep-21 22:20 289 6 gusting 18 11.7
2018-Sep-21 22:15 302 8 gusting 19 11.7
2018-Sep-21 22:10 304 6 gusting 19 11.7
2018-Sep-21 22:00 338 14 gusting 19 11.7
2018-Sep-21 21:50 314 11 gusting 19 12.2
2018-Sep-21 21:35 313 6 gusting 22 12.2
2018-Sep-21 21:15 286 8 gusting 18 12.2
2018-Sep-21 21:10 212 8 gusting 18 12.2
2018-Sep-21 21:05 164 7 gusting 13 12.2
2018-Sep-21 20:55 193 6 gusting 19 12.2
2018-Sep-21 20:50 189 12 gusting 19 12.2
2018-Sep-21 20:45 170 6 gusting 17 12.2
2018-Sep-21 20:40 160 6 gusting 17 12.2
2018-Sep-21 20:35 195 5 gusting 16 12.2
2018-Sep-21 20:25 011 6 gusting 15 12.2
2018-Sep-21 20:15 348 7 gusting 19 12.2
2018-Sep-21 20:10 172 3 gusting 19 12.2
2018-Sep-21 20:05 178 13 gusting 19 12.2
2018-Sep-21 20:00 158 13 gusting 19 12.2
2018-Sep-21 19:50 195 9 gusting 18 12.2
2018-Sep-21 19:45 204 9 gusting 17 12.2
2018-Sep-21 19:40 171 8 gusting 16 12.2
2018-Sep-21 19:25 162 6 gusting 17 12.2
2018-Sep-21 19:20 177 6 gusting 17 12.2
2018-Sep-21 19:10 207 5 gusting 14 12.2
2018-Sep-21 19:05 220 5 gusting 19 12.2
2018-Sep-21 18:55 243 6 gusting 18 12.2
2018-Sep-21 18:50 166 6 gusting 18 12.2
2018-Sep-21 18:40 133 5 gusting 16 11.7
2018-Sep-21 18:35 135 6 gusting 13 11.7
2018-Sep-21 18:25 177 6 gusting 13 11.7
2018-Sep-21 18:20 202 4 gusting 13 11.7
2018-Sep-21 18:15 204 3 gusting 13 11.1
2018-Sep-21 18:00 192 6 gusting 13 11.7
2018-Sep-21 17:55 188 6 gusting 13 11.7
2018-Sep-21 17:50 182 6 gusting 14 11.7
2018-Sep-21 17:25 186 6 gusting 18 12.8
2018-Sep-21 17:20 192 13 gusting 18 13.3
2018-Sep-21 17:10 181 9 gusting 19 13.9
2018-Sep-21 17:05 181 5 gusting 13 13.9
2018-Sep-21 17:00 191 5 gusting 13 13.9
2018-Sep-21 16:55 196 5 gusting 11 13.9
2018-Sep-21 16:50 184 4 gusting 13 13.9
2018-Sep-21 16:45 181 5 gusting 13 13.9
2018-Sep-21 16:40 182 3 gusting 13 13.9
2018-Sep-21 16:30 176 6 gusting 19 13.9
2018-Sep-21 16:00 230 7 gusting 18 14.4
2018-Sep-21 15:45 290 7 gusting 16 14.4
2018-Sep-21 15:35 323 8 gusting 19 14.4
2018-Sep-21 15:30 335 9 gusting 19 14.4
2018-Sep-21 15:20 300 8 gusting 18 14.4
2018-Sep-21 15:15 289 9 gusting 18 14.4
2018-Sep-21 15:10 303 6 gusting 17 14.4
2018-Sep-21 15:00 277 9 gusting 14 14.4
2018-Sep-21 14:55 302 6 gusting 14 14.4
2018-Sep-21 14:50 231 3 gusting 15 14.4
2018-Sep-21 14:35 185 6 gusting 14 14.4
2018-Sep-21 14:25 147 6 gusting 13 13.9
2018-Sep-21 14:20 145 6 gusting 14 13.9
2018-Sep-21 14:15 160 5 gusting 18 13.9
2018-Sep-21 14:00 195 7 gusting 18 13.9
2018-Sep-21 13:40 184 6 gusting 17 13.9
2018-Sep-21 13:35 200 6 gusting 17 14.4
2018-Sep-21 13:30 213 8 gusting 18 14.4
2018-Sep-21 13:25 217 8 gusting 18 14.4
2018-Sep-21 13:20 224 6 gusting 14 15.0
2018-Sep-21 13:15 213 5 gusting 13 15.0
2018-Sep-21 13:10 189 9 gusting 17 15.0
2018-Sep-21 13:05 192 6 gusting 17 15.0
2018-Sep-21 12:40 181 6 gusting 14 15.0
2018-Sep-21 12:30 213 6 gusting 18 15.0
2018-Sep-21 12:25 236 7 gusting 18 15.6
2018-Sep-21 12:00 284 9 gusting 24 18.3
2018-Sep-21 11:55 294 10 gusting 26 18.9
2018-Sep-21 11:50 262 18 gusting 26 19.4
2018-Sep-21 11:30 273 10 gusting 29 22.8
2018-Sep-21 11:15 239 13 gusting 26 23.3
2018-Sep-21 11:10 251 9 gusting 26 23.3
2018-Sep-21 11:05 238 8 gusting 22 23.3
2018-Sep-21 10:55 225 9 gusting 30 23.9
2018-Sep-21 10:45 246 11 gusting 24 23.9
2018-Sep-21 10:40 261 11 gusting 23 23.9
2018-Sep-21 10:35 281 7 gusting 21 23.9
2018-Sep-21 10:30 265 12 gusting 26 23.9
2018-Sep-21 10:10 301 13 gusting 25 23.9
2018-Sep-21 10:05 006 12 gusting 23 23.9
2018-Sep-21 10:00 130 11 gusting 25 23.9
2018-Sep-21 09:45 223 12 gusting 26 23.9
2018-Sep-21 09:40 124 6 gusting 23 24.4
2018-Sep-21 09:05 104 8 gusting 19 23.3
2018-Sep-21 08:55 094 8 gusting 19 23.3
2018-Sep-21 08:50 125 7 gusting 18 22.8
2018-Sep-21 08:45 104 9 gusting 19 22.2
2018-Sep-21 08:30 092 6 gusting 19 21.7
2018-Sep-21 08:25 111 8 gusting 17 21.7
2018-Sep-21 08:20 132 6 gusting 18 21.7
2018-Sep-21 08:15 126 6 gusting 18 21.7
2018-Sep-21 08:10 104 10 gusting 17 21.7
2018-Sep-21 08:05 090 6 gusting 15 21.7
2018-Sep-21 07:55 090 7 gusting 13 21.7
2018-Sep-21 07:45 090 6 gusting 16 21.1
2018-Sep-21 07:40 090 9 gusting 14 20.6
2018-Sep-21 07:30 090 6 gusting 13 20.0
2018-Sep-21 07:25 090 8 gusting 13 20.0
2018-Sep-21 07:15 086 5 gusting 14 20.0
2018-Sep-21 07:10 074 5 gusting 14 20.0
2018-Sep-21 07:05 057 6 gusting 16 20.0
2018-Sep-21 06:50 123 10 gusting 14 20.0
2018-Sep-21 06:45 150 9 gusting 18 20.0
2018-Sep-21 06:35 253 10 gusting 19 19.4
2018-Sep-21 06:30 270 6 gusting 18 19.4
2018-Sep-21 06:25 275 6 gusting 17 19.4
2018-Sep-21 06:05 089 5 gusting 17 18.9
2018-Sep-21 06:00 083 6 gusting 13 18.9
2018-Sep-21 05:55 084 4 gusting 13 18.9
2018-Sep-21 05:50 102 6 gusting 14 18.9
2018-Sep-21 05:45 124 9 gusting 14 18.3
2018-Sep-21 05:35 131 6 gusting 13 18.3
2018-Sep-21 05:30 112 6 gusting 12 18.3
2018-Sep-21 05:25 093 4 gusting 11 18.3
2018-Sep-21 05:20 090 6 gusting 13 18.3
2018-Sep-21 05:15 085 5 gusting 15 18.3
2018-Sep-21 05:10 069 6 gusting 15 18.3
2018-Sep-21 05:05 076 5 gusting 14 18.3
2018-Sep-21 04:50 130 6 gusting 14 18.3
2018-Sep-21 04:45 135 4 gusting 13 17.8
2018-Sep-21 04:10 098 2 gusting 9 17.2
2018-Sep-21 04:00 102 3 gusting 9 16.7
2018-Sep-21 03:55 105 4 gusting 8 16.7
2018-Sep-21 03:50 091 2 gusting 9 16.7
2018-Sep-21 03:35 100 5 gusting 7 16.7
2018-Sep-21 03:30 097 4 gusting 7 16.7
2018-Sep-21 03:25 090 3 gusting 7 16.7
2018-Sep-21 03:10 105 3 gusting 7 17.2
2018-Sep-21 02:55 135 2 gusting 8 17.2
2018-Sep-21 02:45 137 2 gusting 7 17.2
2018-Sep-21 02:40 137 3 gusting 7 17.8
2018-Sep-21 02:35 135 4 gusting 7 17.8
2018-Sep-21 02:30 135 2 gusting 7 17.8
2018-Sep-21 02:25 135 3 gusting 9 17.8
2018-Sep-21 02:10 135 4 gusting 6 17.8
2018-Sep-21 02:05 135 4 gusting 6 17.8
2018-Sep-21 01:55 142 3 gusting 8 17.8
2018-Sep-21 01:45 135 3 gusting 6 17.2
2018-Sep-21 01:40 135 2 gusting 6 17.2
2018-Sep-21 01:35 138 2 gusting 6 17.2
2018-Sep-21 01:25 135 2 gusting 6 17.2
2018-Sep-21 01:20 135 3 gusting 6 17.2
2018-Sep-21 01:05 122 3 gusting 6 17.2
2018-Sep-21 00:55 090 2 gusting 6 16.7
2018-Sep-21 00:50 090 3 gusting 6 16.7
2018-Sep-21 00:40 151 2 gusting 6 16.7
2018-Sep-21 00:30 099 3 gusting 6 16.7
2018-Sep-21 00:15 111 2 gusting 6 16.7
2018-Sep-21 00:10 132 1 gusting 5 16.7
2018-Sep-21 00:00 135 2 gusting 6 16.7
2018-Sep-20 23:55 135 1 gusting 6 16.7
2018-Sep-20 23:45 135 2 gusting 6 17.2
2018-Sep-20 23:40 135 3 gusting 6 17.2
2018-Sep-20 23:35 135 2 gusting 6 17.2
2018-Sep-20 23:20 104 2 gusting 6 16.7
2018-Sep-20 23:15 090 3 gusting 6 16.7
2018-Sep-20 23:10 090 2 gusting 5 16.7
2018-Sep-20 22:55 090 1 gusting 3 16.7
2018-Sep-20 22:50 090 1 gusting 3 16.7
2018-Sep-20 22:45 090 1 gusting 3 16.7
2018-Sep-20 22:35 090 1 gusting 4 16.7
2018-Sep-20 22:20 090 1 gusting 4 16.7
2018-Sep-20 22:10 124 1 gusting 2 16.7
2018-Sep-20 22:05 135 0 gusting 2 16.7
2018-Sep-20 21:55 135 1 gusting 3 17.2
2018-Sep-20 21:40 135 1 gusting 3 17.2
2018-Sep-20 21:35 135 1 gusting 3 17.2
2018-Sep-20 21:25 135 0 gusting 2 17.2
2018-Sep-20 21:05 142 1 gusting 3 17.8
2018-Sep-20 21:00 154 1 gusting 3 17.8
2018-Sep-20 20:55 161 0 gusting 2 17.8
2018-Sep-20 20:50 173 1 gusting 3 17.8
2018-Sep-20 20:40 181 0 gusting 3 17.8
2018-Sep-20 20:35 181 1 gusting 5 18.3
2018-Sep-20 20:30 181 1 gusting 5 18.3
2018-Sep-20 20:25 181 1 gusting 3 18.3
2018-Sep-20 20:10 181 1 gusting 5 17.8
2018-Sep-20 19:55 181 1 gusting 4 17.8
2018-Sep-20 19:50 181 1 gusting 4 17.8
2018-Sep-20 19:25 181 1 gusting 3 18.3
2018-Sep-20 19:20 181 1 gusting 2 18.3
2018-Sep-20 19:15 183 18.3
2018-Sep-20 19:10 217 0 gusting 9 18.3
2018-Sep-20 19:00 344 2 gusting 9 18.3
2018-Sep-20 18:55 019 1 gusting 6 18.3
2018-Sep-20 18:50 115 3 gusting 6 18.3
2018-Sep-20 18:40 135 1 gusting 3 18.3
2018-Sep-20 18:15 181 1 gusting 5 18.9
2018-Sep-20 18:10 181 1 gusting 3 18.9
2018-Sep-20 18:05 181 1 gusting 4 18.9
2018-Sep-20 18:00 181 1 gusting 4 18.9
2018-Sep-20 17:30 172 2 gusting 6 19.4
2018-Sep-20 17:25 151 1 gusting 7 19.4
2018-Sep-20 17:10 135 1 gusting 6 19.4
2018-Sep-20 17:00 143 1 gusting 6 19.4
2018-Sep-20 16:50 135 0 gusting 5 19.4
2018-Sep-20 16:25 270 0 gusting 7 20.0
2018-Sep-20 16:20 188 2 gusting 7 20.0
2018-Sep-20 16:15 183 2 gusting 11 20.0
2018-Sep-20 16:00 157 4 gusting 14 20.6
2018-Sep-20 15:50 186 5 gusting 13 20.6
2018-Sep-20 15:45 181 3 gusting 13 21.1
2018-Sep-20 15:35 169 5 gusting 18 21.1
2018-Sep-20 15:30 160 4 gusting 18 21.1
2018-Sep-20 15:25 148 6 gusting 13 20.6
2018-Sep-20 15:15 144 5 gusting 18 21.1
2018-Sep-20 15:10 177 5 gusting 18 21.7
2018-Sep-20 15:05 197 3 gusting 15 21.7
2018-Sep-20 15:00 166 5 gusting 10 21.1
2018-Sep-20 14:40 170 3 gusting 16 20.6
2018-Sep-20 14:35 179 3 gusting 16 20.6
2018-Sep-20 13:55 157 6 gusting 13 21.7
2018-Sep-20 13:40 191 6 gusting 15 22.2
2018-Sep-20 13:35 200 3 gusting 13 22.8
2018-Sep-20 13:30 227 4 gusting 13 22.8
2018-Sep-20 13:25 235 3 gusting 13 23.3
2018-Sep-20 13:15 232 5 gusting 15 22.2
2018-Sep-20 13:05 137 9 gusting 19 22.2
2018-Sep-20 12:55 152 6 gusting 17 22.2
2018-Sep-20 12:50 147 6 gusting 17 22.2
2018-Sep-20 12:30 156 3 gusting 15 22.2
2018-Sep-20 12:25 143 5 gusting 15 21.7
2018-Sep-20 12:15 179 4 gusting 13 20.6
2018-Sep-20 12:05 149 2 gusting 13 21.1
2018-Sep-20 11:55 149 6 gusting 14 21.7
2018-Sep-20 11:50 169 5 gusting 14 21.1
2018-Sep-20 11:45 185 2 gusting 14 20.6
2018-Sep-20 11:35 184 5 gusting 18 20.6
2018-Sep-20 11:30 186 8 gusting 18 21.7
2018-Sep-20 11:25 191 3 gusting 18 21.7
2018-Sep-20 11:15 203 2 gusting 13 21.1
2018-Sep-20 11:10 238 3 gusting 13 21.1
2018-Sep-20 11:05 285 7 gusting 16 21.1
2018-Sep-20 11:00 286 2 gusting 18 21.1
2018-Sep-20 10:50 224 8 gusting 18 21.7
2018-Sep-20 10:30 296 3 gusting 13 20.0
2018-Sep-20 10:25 308 3 gusting 14 20.0
2018-Sep-20 10:20 316 5 gusting 14 20.0
2018-Sep-20 10:15 289 6 gusting 16 20.0
2018-Sep-20 10:10 259 6 gusting 16 19.4
2018-Sep-20 10:05 249 3 gusting 14 20.0
2018-Sep-20 10:00 253 6 gusting 19 20.0
2018-Sep-20 09:50 285 4 gusting 20 20.6
2018-Sep-20 09:45 298 6 gusting 15 21.1
2018-Sep-20 09:40 294 7 gusting 15 21.1
2018-Sep-20 09:20 251 6 gusting 16 19.4
2018-Sep-20 09:10 294 6 gusting 16 19.4
2018-Sep-20 09:05 308 9 gusting 15 19.4
2018-Sep-20 09:00 310 7 gusting 15 20.0
2018-Sep-20 08:50 158 6 gusting 15 20.0
2018-Sep-20 08:40 119 5 gusting 13 19.4
2018-Sep-20 08:35 121 3 gusting 14 19.4
2018-Sep-20 08:15 055 5 gusting 13 18.9
2018-Sep-20 08:10 116 6 gusting 13 18.9
2018-Sep-20 08:05 114 6 gusting 13 19.4
2018-Sep-20 07:50 137 5 gusting 13 19.4
2018-Sep-20 07:45 135 8 gusting 13 19.4
2018-Sep-20 07:30 118 3 gusting 14 19.4
2018-Sep-20 07:20 106 6 gusting 14 18.9
2018-Sep-20 07:10 177 3 gusting 13 18.9
2018-Sep-20 07:05 151 6 gusting 13 18.9
2018-Sep-20 07:00 135 4 gusting 14 18.3
2018-Sep-20 06:40 138 6 gusting 12 18.3
2018-Sep-20 06:15 135 5 gusting 8 17.8
2018-Sep-20 06:10 142 3 gusting 11 17.8
2018-Sep-20 06:00 173 5 gusting 9 17.8